Regional Weather Roundup
Issued by NWS

Home | Current Version | Previous Version | Text Only | Print | Product List | Glossary Off
Versions: 1 2 3 4 5 6 7 8 9 10 11 12 13 14 15 16 17 18 19 20 21 22 23 24 25 26 27 28 29 30 31 32 33 34 35 36 37 38 39 40 41 42 43 44 45 46 47 48 49 50

000
ASUS45 KTFX 220110
RWRMT
MONTANA REGIONAL WEATHER ROUNDUP
NATIONAL WEATHER SERVICE GREAT FALLS MT
700 PM MDT THU SEP 21 2017

NOTE: "FAIR" INDICATES FEW OR NO CLOUDS BELOW 12000 FEET WITH NO
SIGNIFICANT WEATHER AND/OR OBSTRUCTIONS TO VISIBILITY.

MTZ001>007-043-220200-
WEST OF THE DIVIDE

CITY           SKY/WX    TMP DP  RH WIND       PRES   REMARKS
KALISPELL      MOCLDY    48  37  65 N7        29.91R
MISSOULA       CLOUDY    49  35  58 NW7       29.88S
BUTTE          CLOUDY    43  30  60 E5        29.88F
MULLAN PASS    FOG       33  31  92 NW5       29.90S VSB<1/4
ANACONDA         N/A     45  28  53 CALM      29.87F
DEER LODGE       N/A     46  28  49 NW3       29.89F
EUREKA           N/A     48  39  71 CALM      29.95R
HAMILTON         N/A     46  34  61 NW10      29.86S
LIBBY            N/A     50  37  62 SW3       29.93R
$$

MTZ008-052>055-220200-
SOUTHWEST MONTANA

CITY           SKY/WX    TMP DP  RH WIND       PRES   REMARKS
BOZEMAN        CLOUDY    44  35  70 CALM      29.90S
DILLON         CLOUDY    40  33  76 CALM      29.87S
W YELLOWSTONE  CLOUDY    37  37 100 MISG      29.84S
ENNIS          CLOUDY    37  34  87 N14       29.91R WCI  29
THREE FORKS      N/A     45  33  62 CALM      29.90F
TWIN BRIDGES     N/A     43  29  58 S5        29.87S
$$

MTZ009-010-012-014-046-048-049-054-220200-
EAST SLOPES AND CENTRAL MONTANA

CITY           SKY/WX    TMP DP  RH WIND       PRES   REMARKS
CUT BANK       CLOUDY    43  31  62 N14       29.96R
GREAT FALLS    CLOUDY    50  28  42 NE8       29.91R
MALMSTROM AFB  CLOUDY    50  31  48 NE8       29.92R
HELENA         CLOUDY    51  32  48 NE6       29.87S
BOWMANS CRNR   MOCLDY    47  26  43 E8        29.88R
CHOTEAU          N/A     46  34  61 N12       29.95R
FAIRFIELD      MOCLDY    47  31  54 N15       29.91R
POWER          MOCLDY    50  30  46 NE5       29.91R
RAYNESFORD     MOCLDY    49  31  51 E8        29.92R
ULM            CLOUDY    51  28  41 NE8       29.90R
$$

MTZ011-013-016-021-045-047-050-051-220200-
NORTH CENTRAL MONTANA

CITY           SKY/WX    TMP DP  RH WIND       PRES   REMARKS
HAVRE          PTCLDY    51  32  48 N7        29.94R
LEWISTOWN      CLOUDY    49  30  48 N5        29.92R
N BAR RANCH    CLOUDY    46  30  53 E3        29.95R
CHINOOK          N/A     52  30  43 NW7       29.93R
DENTON           N/A     48  34  57 N5        29.89R
GEYSER         MOCLDY    47  32  55 E7        29.92R
GRASS RANGE    CLOUDY    49  31  49 E5        29.90R
JUDITH GAP     LGT RAIN  44  33  65 SW6       29.92R
WINIFRED       MOCLDY    48  32  53 N5        29.92R
$$

MTZ017>020-022>027-061-062-220200-
NORTHEAST MONTANA

CITY           SKY/WX    TMP DP  RH WIND       PRES   REMARKS
GLASGOW        CLOUDY    56  33  42 W6        29.88R
JORDAN           N/A     55  34  45 N6        29.90R
SIDNEY         MOCLDY    56  38  50 NW6       29.86R
WOLF POINT     CLOUDY    59  33  37 NW7       29.87R
MALTA          PTCLDY    55  30  38 NW12      29.91R
POPLAR           N/A     57  37  47 N3        29.87R
SCOBEY           N/A     55  31  40 NW1       29.88R
$$

MTZ028>42-056>058-220200-
SOUTHCENTRAL AND SOUTHEAST MONTANA

CITY           SKY/WX    TMP DP  RH WIND       PRES   REMARKS
BAKER          CLEAR     55  30  38 N13       29.85R
BILLINGS       CLOUDY    46  42  86 SE5       29.91R
LIVINGSTON     LGT RAIN  42  38  85 E7        29.91R
MILES CITY     CLOUDY    52  39  61 NW5       29.88R
BIG TIMBER     CLOUDY    43  36  75 NE7       29.94R
EKALAKA          N/A     53  30  41 N8        29.85R
HARLOWTON      LGT RAIN  46  35  67 MISG      29.91R
LAUREL           N/A     45  43  93 E3        29.92S
$$

REGIONAL REPORTS...DAKOTAS

CITY           SKY/WX    TMP DP  RH WIND       PRES   REMARKS
WILLISTON      CLOUDY    53  41  63 NW7       29.85R
MINOT          CLEAR     60  44  55 NW13      29.78R
DICKINSON      CLEAR     58  39  49 N9        29.80R
BEACH            N/A     52  34  50 N8        29.89R
CROSBY           N/A     54  37  54 NW3       29.86R
TIOGA            N/A     54  37  54 N5        29.85R
WATFORD CITY     N/A     55  39  54 NW6       29.84R
BISMARCK       CLEAR     68  45  43 N8        29.73R
GRAND FORKS    PTCLDY    70  56  61 SE8       29.70R
FARGO          CLOUDY    76  62  62 SE10      29.69R
BUFFALO SD       N/A     62  40  44 N17       29.72R
RAPID CITY     CLEAR     66  39  37 N13       29.72R
$$

REGIONAL REPORTS...WYOMING/IDAHO/WASHINGTON

CITY           SKY/WX    TMP DP  RH WIND       PRES   REMARKS
GILLETTE       CLEAR     56  39  53 N18       29.80R
SHERIDAN       CLOUDY    47  41  80 NW14      29.89R
BUFFALO WY     MOCLDY    47  38  71 N15       29.87R
CODY           LGT RAIN  40  37  89 N14       29.86S
IDAHO FALLS    LGT RAIN  42  39  89 VRB3      29.80F
SALMON         CLOUDY    51  31  46 SE6       29.82R
BOISE          MOCLDY    56  33  42 NW10      29.80R
SPOKANE        MOCLDY    50  42  74 NE3       29.92S
$$

REGIONAL REPORTS...ALBERTA

CITY           SKY/WX    TMP DP  RH WIND       PRES   REMARKS
EDMONTON       CLOUDY    39  39 100 N9        30.00
CALGARY        LGT RAIN  36  34  93 N12       29.99R WCI  27
LETHBRIDGE     CLOUDY    43  30  61 NW16      29.99R
MEDICINE HAT   CLOUDY    48  32  53 NW15      29.94R
$$

REGIONAL REPORTS...SASKATCHEWAN

CITY           SKY/WX    TMP DP  RH WIND       PRES   REMARKS
SWIFT CURRENT  CLEAR     43  30  61 W9        29.89R
REGINA         PTCLDY    50  34  53 NW12      29.87R
SASKATOON      LGT RAIN  46  41  81 W8        29.86R
$$



USA.gov is the U.S. government's official web portal to all federal, state and local government web resources and services.